Wind_Speed
39 47 52 53 51 50 46 46 46 41 38 39 41 44 46 45 45 44 44 44 45 44 42 40 39 40 42 44 44 44 44 44 44 44 44 44 43 43 42 42 43 45 45 45 47 50 52 53 53 53 53 53 52 52 53 53 52 53 54 54 55 56 57 59 60 63 65 66 64 64 64 64 64 64 65 66 67 68 70 71 71 74 76 77 77 78 79 80
36 45 51 54 53 52 49 47 48 46 43 40 39 41 44 47 49 48 48 47 47 47 47 46 44 43 43 45 46 47 46 46 47 48 47 47 46 45 46 46 47 48 49 50 51 53 53 54 54 55 56 55 53 51 50 50 51 52 54 56 58 59 61 62 64 65 65 65 64 64 64 64 65 65 67 68 70 72 74 74 74 76 78 78 79 80 82 83
33 41 49 53 53 53 52 49 50 49 47 46 43 41 42 44 47 49 50 50 49 49 49 49 48 46 46 46 46 48 48 49 49 50 50 49 49 49 49 49 50 51 51 53 54 54 54 55 55 56 55 53 52 51 51 51 52 54 57 59 61 62 63 63 63 63 63 62 63 64 65 66 67 68 70 72 73 76 76 76 77 79 80 81 82 84 85 86
29 37 45 52 54 54 54 52 51 51 51 50 48 46 45 44 45 46 47 49 50 49 49 49 49 50 49 48 47 47 48 49 50 51 52 52 51 51 52 53 53 53 53 53 54 54 55 55 54 54 53 53 52 52 52 53 54 56 57 59 60 61 62 62 62 64 65 66 67 68 69 70 71 72 73 75 76 78 78 79 81 83 84 84 86 87 88 88
26 33 41 49 55 56 56 55 54 53 53 53 52 51 50 49 48 48 47 47 48 50 50 50 50 51 52 51 51 50 48 48 49 50 51 52 53 52 53 54 56 57 56 54 53 53 53 53 52 52 53 54 54 54 55 56 57 58 59 60 63 64 65 66 68 69 70 71 71 72 72 73 74 75 77 79 81 82 82 83 85 85 86 86 87 88 89 89
23 29 36 44 52 57 57 57 57 55 55 55 56 56 55 54 53 53 52 50 50 50 51 51 52 53 53 53 54 54 53 51 51 51 51 52 52 52 52 53 54 56 57 56 55 54 54 54 54 56 57 58 59 60 61 62 62 63 65 66 67 69 69 70 71 72 73 74 75 76 77 78 79 80 82 83 84 83 83 84 85 86 86 87 87 88 89 90
22 25 31 39 47 54 58 59 59 59 58 58 58 59 59 58 57 56 57 56 55 54 54 54 55 56 55 55 55 56 57 57 56 55 54 54 54 54 54 54 54 54 55 56 57 58 59 59 61 62 63 64 64 65 66 67 67 68 70 70 71 72 73 74 75 76 77 78 80 81 81 82 81 81 82 84 85 83 83 84 85 86 87 88 88 90 91 92
21 23 27 33 41 49 55 59 61 61 60 60 60 61 62 62 61 60 60 60 60 59 59 58 58 59 59 59 58 58 59 60 61 60 59 58 58 58 58 58 58 58 59 60 61 62 63 64 66 67 68 68 69 69 70 71 72 72 74 75 75 76 77 78 79 80 80 81 82 82 82 81 80 80 82 86 86 84 85 86 87 88 89 90 91 92 93 94
22 23 25 29 34 41 49 55 60 62 63 63 62 63 63 64 64 64 63 63 63 63 63 62 61 62 63 63 62 61 61 62 64 64 64 63 63 63 63 63 64 65 66 66 67 67 68 68 69 70 71 72 72 73 74 74 75 76 76 77 78 79 80 80 81 82 82 82 82 82 82 82 81 82 85 89 88 87 89 90 90 91 92 93 93 94 95 95
21 23 24 26 30 35 42 49 56 61 64 65 65 64 65 65 66 66 66 65 66 66 65 65 65 64 64 65 66 66 65 65 65 66 67 68 67 67 67 67 68 69 69 70 71 71 72 72 72 73 74 75 75 76 77 77 78 78 78 79 80 80 81 82 83 83 84 84 84 85 85 85 85 86 89 92 91 91 93 93 93 94 95 95 95 96 96 96
21 22 24 26 29 32 37 43 50 57 62 65 66 67 67 67 67 68 68 68 68 68 68 68 68 67 66 67 67 69 69 69 68 69 69 70 70 71 71 71 71 71 71 72 73 73 74 74 75 76 77 78 78 79 79 80 80 80 81 81 82 83 83 85 86 87 87 87 88 88 88 87 87 90 93 94 93 95 96 95 96 96 96 96 96 96 96 95
21 23 24 27 29 31 34 38 43 49 55 61 65 67 69 70 70 70 70 70 70 71 72 71 71 71 70 70 70 70 71 71 72 72 73 73 73 73 74 75 75 75 75 75 76 76 77 77 78 78 79 80 80 80 81 82 82 83 83 84 85 86 86 88 89 89 90 90 91 91 89 87 89 93 96 96 96 97 97 97 97 97 97 97 97 96 95 94
21 23 25 26 28 29 31 33 36 41 46 52 58 64 68 70 72 73 74 74 73 74 74 74 74 74 74 74 74 74 73 74 74 75 75 76 76 76 77 77 78 78 78 79 79 79 79 80 80 81 81 82 82 83 83 84 84 85 86 86 86 87 88 89 91 91 91 92 93 93 90 88 91 96 98 99 99 98 98 98 98 98 98 98 97 95 93 92
22 23 24 25 26 27 28 30 32 35 39 43 48 54 60 66 70 73 76 78 78 78 78 78 78 78 78 78 78 78 77 77 77 77 78 78 79 79 80 80 80 81 81 81 82 82 82 83 83 83 84 85 85 85 85 86 86 87 88 88 88 89 89 91 93 93 94 95 95 95 92 90 92 97 100 101 100 100 100 99 98 98 98 97 95 92 91 90
21 22 22 23 24 25 26 28 30 31 33 36 39 43 49 54 60 66 71 75 79 81 82 82 82 82 82 82 82 82 82 81 81 81 81 81 82 82 82 83 83 83 84 84 85 85 85 86 86 87 88 88 88 88 88 88 89 91 91 90 91 91 91 92 94 95 96 97 97 97 95 93 95 99 102 102 100 100 99 98 98 97 96 94 92 90 89 88
19 19 19 19 20 20 21 23 24 26 28 30 33 35 39 43 47 53 58 64 69 74 79 82 84 85 85 86 87 86 86 85 86 85 85 85 85 86 86 86 86 86 87 87 88 88 89 89 89 90 91 91 92 91 91 91 91 94 93 92 92 93 92 93 95 97 98 98 98 99 98 96 98 101 102 100 98 97 97 96 95 93 92 91 89 88 87 88
16 15 15 15 15 15 16 18 19 21 23 25 28 30 32 34 37 41 45 50 55 60 65 69 74 77 80 83 85 87 88 89 89 89 89 89 89 89 89 89 89 89 89 89 90 91 91 91 92 93 93 94 94 93 92 92 93 94 94 93 93 94 94 95 97 99 99 99 99 100 99 98 99 101 100 96 94 93 93 92 91 91 90 89 88 88 88 90
12 12 12 11 12 13 14 16 17 19 21 22 24 26 28 29 31 34 36 40 43 47 51 54 59 63 66 70 74 77 81 84 87 89 90 90 91 91 90 90 90 90 90 91 91 91 92 92 92 93 94 94 93 94 93 92 93 94 94 95 94 95 95 96 98 99 99 99 99 99 99 97 96 96 94 92 91 90 90 90 90 91 91 91 91 91 92 93
9 8 8 9 10 12 14 15 16 18 19 20 21 23 24 26 27 29 30 32 34 37 39 41 44 47 51 56 60 64 68 73 77 81 84 86 88 89 90 91 91 91 91 91 91 92 92 92 92 93 93 94 94 94 94 94 94 94 95 95 95 95 95 97 99 99 98 96 95 95 94 93 92 91 90 90 91 91 91 91 92 94 95 95 95 96 97 98
5 5 6 8 10 12 14 15 16 17 18 19 20 21 22 24 25 27 28 29 29 31 32 32 34 35 38 41 45 50 55 60 65 70 74 77 80 82 85 87 88 89 90 91 91 92 92 92 93 94 94 95 96 96 96 96 96 96 96 95 95 95 94 94 95 95 94 92 90 91 92 92 91 90 90 91 93 93 93 94 95 97 99 99 99 100 101 101
3 5 7 9 10 12 13 15 16 18 18 20 21 22 23 24 25 27 28 29 29 30 30 30 30 31 32 33 35 38 42 48 53 58 63 67 71 74 77 79 81 83 85 86 87 89 90 90 92 93 93 94 95 95 95 95 94 94 93 92 91 91 90 90 90 90 90 90 89 90 92 92 92 91 92 93 94 95 96 97 98 100 102 102 102 103 103 103
4 6 7 9 11 12 14 15 17 19 20 22 23 24 24 25 27 28 29 29 30 31 31 31 31 31 31 31 32 33 35 38 42 47 52 57 61 65 68 71 73 75 78 79 81 82 84 85 86 87 88 89 89 90 90 89 89 88 88 88 87 87 87 87 87 88 89 89 90 91 93 93 93 92 93 94 95 96 97 99 100 101 103 103 104 103 104 104
5 7 9 11 12 14 15 17 19 21 23 24 25 26 27 28 29 30 31 32 32 33 33 33 34 34 34 34 34 34 34 35 37 40 43 47 51 55 58 61 65 67 70 72 73 75 76 78 79 80 81 82 83 83 84 84 84 85 85 85 85 86 87 86 87 88 89 90 91 92 94 94 94 94 95 96 96 97 98 99 100 101 102 103 103 103 103 102
6 8 11 13 14 16 17 19 22 24 25 27 28 29 30 32 32 33 34 34 34 35 35 35 36 36 36 36 36 36 36 37 37 38 40 42 44 47 49 52 56 58 61 63 66 68 69 71 73 74 76 77 78 79 80 80 81 83 84 84 84 85 86 87 87 88 89 90 92 93 95 95 96 96 96 96 97 97 98 99 100 101 101 102 102 101 100 99
8 10 13 15 16 18 20 22 24 26 28 30 32 33 34 35 35 35 36 36 36 36 37 38 38 38 38 38 38 38 38 39 39 40 41 42 43 45 46 48 51 53 55 58 60 62 64 66 68 70 71 73 75 76 78 78 79 81 83 84 84 85 87 88 89 90 90 91 93 95 97 97 96 96 96 96 96 96 97 97 98 99 99 99 99 98 98 98
11 13 14 16 18 20 23 25 27 30 32 34 36 37 38 38 38 38 38 38 39 38 39 39 39 40 40 40 40 40 40 41 41 42 43 44 45 46 47 49 51 52 55 56 58 60 62 64 66 68 69 71 73 75 77 78 79 80 82 84 85 86 88 89 91 92 92 93 93 95 98 97 93 93 93 94 94 94 94 95 95 96 96 96 96 96 97 97
12 14 16 18 21 24 26 28 31 34 36 38 39 41 41 41 41 40 40 40 40 40 40 40 40 40 41 42 41 41 42 43 43 44 45 46 47 48 49 51 52 54 56 57 59 61 63 65 67 68 70 72 74 76 77 79 80 81 83 85 86 88 89 90 91 92 92 91 90 92 95 94 89 88 89 90 90 90 91 91 92 93 93 94 95 96 97 98
14 16 19 22 24 27 29 32 35 37 39 41 42 43 43 43 43 42 42 41 42 41 40 39 39 39 40 41 41 42 43 44 44 46 47 47 49 50 51 52 54 55 57 58 60 63 64 66 68 70 72 73 75 77 79 80 81 83 84 86 87 87 87 88 87 87 88 86 85 88 91 90 87 85 86 87 87 88 89 90 91 92 93 94 95 95 96 96
16 19 22 25 27 30 33 36 38 40 42 43 45 45 45 45 44 44 42 41 40 39 37 36 36 36 37 38 39 40 42 43 44 46 48 49 50 51 52 54 55 57 58 60 62 64 66 68 70 72 73 75 76 78 79 80 80 81 82 82 82 82 82 82 81 82 83 81 81 84 86 87 85 83 85 86 87 87 88 88 89 89 90 90 90 91 91 91
19 22 24 27 30 33 36 39 41 43 44 45 46 47 47 46 45 43 40 36 35 34 32 32 31 31 32 33 34 36 37 39 41 43 45 47 48 50 52 53 55 57 59 60 62 64 66 68 70 71 72 73 74 75 75 75 75 75 75 75 76 76 76 76 77 78 79 79 80 82 83 84 84 81 82 84 83 83 84 84 85 86 86 87 88 89 90 91
22 24 26 29 33 36 39 42 44 45 46 47 47 48 47 45 42 38 34 31 29 29 29 28 28 28 28 28 29 31 33 34 35 37 39 41 43 45 47 49 50 52 54 56 58 59 61 63 64 65 66 66 67 68 68 68 69 70 70 72 72 73 74 74 74 76 77 77 77 78 79 79 79 77 78 80 81 82 83 84 86 87 88 90 91 92 93 94
25 26 29 33 36 40 42 44 45 46 47 48 48 48 46 41 36 32 29 27 25 25 25 25 26 26 26 25 26 27 29 30 31 33 34 35 37 39 41 43 44 46 47 49 52 54 56 57 58 58 59 60 61 62 64 65 67 68 69 71 71 71 71 70 70 71 71 72 73 74 76 77 77 78 80 81 82 84 86 87 88 89 90 91 92 93 94 94
27 29 33 36 40 42 44 45 47 48 48 48 48 46 41 36 31 28 26 25 24 23 23 23 23 23 24 24 24 25 26 27 29 30 31 33 34 35 37 39 40 42 43 44 47 50 54 56 57 58 59 60 60 61 63 64 65 66 67 68 68 69 68 66 66 68 68 70 72 74 76 77 77 80 81 83 84 85 86 87 88 89 90 91 92 93 94 95
30 33 36 40 42 44 46 47 48 49 48 48 45 40 35 30 27 25 25 25 25 24 24 24 25 25 25 25 26 26 27 27 28 30 31 32 34 35 36 38 39 41 42 44 45 47 52 56 57 58 58 59 59 59 59 60 60 62 64 66 67 69 70 68 67 68 68 68 70 73 77 77 78 80 82 84 85 86 87 88 89 90 91 93 94 95 96 96
33 36 39 42 44 45 47 48 49 48 48 45 39 34 30 28 26 26 26 26 27 27 27 27 27 27 28 29 29 30 30 31 31 32 33 34 36 37 38 39 40 42 42 43 44 44 47 52 53 53 54 54 55 56 58 59 60 61 63 66 67 69 71 71 70 70 71 69 69 72 76 78 79 81 83 86 87 89 90 91 91 93 94 95 96 97 98 99
36 38 41 43 45 46 48 48 48 48 45 39 33 29 27 27 26 27 27 27 28 28 29 29 28 28 29 30 31 31 32 33 33 34 35 35 36 37 37 38 38 39 39 40 40 39 42 48 51 51 53 54 55 56 58 59 61 62 64 66 68 70 72 73 73 73 75 74 72 74 77 80 82 84 85 88 90 92 93 94 95 96 97 98 99 100 101 102
38 40 42 44 45 47 48 48 48 46 40 33 29 28 27 27 27 27 28 28 29 30 30 30 31 31 30 30 31 31 32 32 32 33 33 33 34 34 35 36 36 38 39 39 40 40 40 46 52 53 54 55 56 58 61 63 64 66 68 70 71 73 75 77 77 77 79 80 78 79 81 83 86 88 89 91 93 95 96 97 99 100 101 102 103 104 105 106
39 42 43 44 46 47 48 48 46 40 33 29 28 28 28 28 28 29 30 30 31 32 32 32 32 32 32 31 31 31 31 30 31 31 32 33 34 34 35 36 37 38 39 39 41 42 41 44 52 56 57 59 60 62 65 67 69 71 72 74 75 76 78 80 82 83 84 84 83 82 84 86 89 91 93 94 96 98 99 100 102 103 104 105 106 107 108 109
41 42 43 45 47 48 48 47 41 33 29 28 28 28 29 29 30 31 32 32 33 33 32 32 31 30 30 30 29 30 31 31 31 32 33 33 34 34 35 36 37 38 40 42 43 46 47 48 54 60 62 63 64 65 68 70 72 74 76 77 79 80 81 82 84 87 89 89 89 88 87 88 91 94 96 98 99 100 102 103 105 106 107 108 110 111 112 113
41 43 45 47 48 48 47 41 34 29 28 29 29 30 30 31 32 33 33 32 32 31 30 30 30 29 29 30 30 30 30 30 31 31 31 32 33 34 36 38 41 43 46 49 50 52 54 55 58 62 65 66 67 68 70 71 73 75 77 79 81 83 84 85 86 90 93 94 95 95 92 90 93 97 99 101 102 104 105 107 108 109 111 112 113 114 115 116
42 44 46 47 48 48 42 34 29 29 29 30 31 32 32 33 33 32 31 31 30 29 29 29 29 30 29 29 29 29 28 28 29 30 32 35 37 39 42 45 48 51 53 55 56 57 59 60 61 63 65 67 68 70 72 73 75 77 79 81 83 85 87 88 88 91 94 96 99 102 100 97 98 101 103 104 106 108 109 110 111 112 113 114 114 115 116 117
44 46 47 48 48 42 35 30 29 30 30 31 32 33 32 32 31 30 29 29 28 28 29 29 29 29 29 29 29 30 30 31 33 35 37 41 44 46 49 51 53 55 56 58 60 61 61 62 63 65 67 68 69 72 74 76 79 81 83 85 87 89 91 92 93 94 95 98 101 105 106 104 104 105 106 107 109 110 110 111 111 111 112 112 113 113 114 114
45 47 48 48 43 35 30 30 31 31 32 33 33 32 31 30 29 28 28 28 28 28 28 27 26 26 26 28 30 32 35 38 40 42 45 47 50 52 53 54 56 57 59 60 62 64 64 64 65 66 68 70 72 76 78 80 83 85 87 89 91 93 95 97 99 100 100 101 104 107 108 107 106 106 107 107 108 108 108 108 109 109 109 110 110 111 112 112
46 48 48 44 37 31 31 31 32 32 32 32 31 30 29 28 28 27 27 27 27 26 26 25 25 25 27 29 32 36 39 43 45 47 49 50 52 54 55 57 58 60 61 63 65 66 67 68 69 69 69 71 74 77 78 80 84 87 89 91 93 95 98 100 102 103 103 103 104 106 106 105 105 105 105 105 106 106 106 106 107 107 107 108 109 110 110 110
47 48 46 39 33 31 32 32 32 32 31 30 29 28 28 27 27 27 27 26 25 25 25 26 27 29 32 35 38 41 43 46 48 50 51 53 54 56 58 59 61 62 64 65 66 68 71 73 75 77 77 77 78 80 81 82 84 87 90 93 95 98 100 101 102 103 103 102 102 104 105 104 104 104 104 105 105 105 105 105 106 106 107 107 107 107 107 107
47 47 41 34 32 32 32 32 32 31 30 29 28 27 26 26 26 26 25 25 25 26 27 30 32 35 39 41 44 46 48 50 51 53 54 55 57 59 61 62 64 65 66 68 69 71 74 77 80 83 85 85 86 88 89 89 90 92 94 95 97 98 98 99 100 100 101 100 100 102 103 104 104 104 104 105 104 104 104 104 104 105 105 105 105 105 104 104
48 43 36 32 32 32 32 31 31 29 29 28 26 26 26 25 25 24 23 24 25 27 31 34 37 40 42 45 47 50 51 53 53 55 57 59 61 62 64 65 66 67 69 71 72 74 77 79 82 86 89 90 91 93 94 96 97 97 97 97 96 96 96 96 97 98 99 100 100 100 102 102 103 103 103 103 103 102 102 102 102 102 102 102 102 102 102 102
45 38 32 32 32 32 31 30 29 28 27 26 25 25 24 24 23 23 23 25 27 30 34 37 39 42 44 46 48 50 52 55 57 58 60 63 65 66 67 68 69 70 72 74 75 77 79 81 83 86 90 92 94 96 97 98 98 98 97 96 95 94 94 94 96 96 98 99 100 100 100 100 100 100 100 100 100 99 99 99 99 99 99 99 100 100 100 100
41 34 32 33 32 31 30 28 27 26 25 25 24 23 22 22 22 24 26 29 32 35 37 39 42 44 46 47 48 50 52 55 58 61 63 65 67 68 69 70 71 73 74 76 78 80 82 84 85 87 90 93 95 97 98 97 97 95 94 93 93 93 93 94 95 95 96 97 98 98 98 97 97 97 97 98 98 98 98 98 98 98 98 98 99 99 99 99
35 32 33 33 31 30 28 27 26 25 24 24 23 21 22 22 24 27 30 33 36 38 41 43 45 47 48 49 51 52 54 56 59 62 65 66 68 69 70 72 74 75 77 79 81 83 85 86 87 89 91 94 95 95 96 95 93 92 92 92 91 91 91 91 92 92 92 92 93 93 93 94 94 94 95 95 96 96 96 96 96 97 97 97 97 97 98 98
32 32 32 31 29 28 27 26 25 24 23 22 21 21 23 25 27 30 33 36 38 41 44 46 48 49 51 52 54 56 59 62 64 65 67 68 69 70 72 74 76 78 80 82 84 86 87 88 90 91 92 93 92 92 91 90 89 89 89 88 87 87 86 86 87 89 89 88 87 87 87 88 88 89 89 90 91 92 92 92 92 93 94 95 94 94 94 95
32 32 31 29 28 27 26 25 23 23 22 21 21 23 25 27 30 33 35 38 41 44 46 48 49 52 54 57 59 62 64 66 67 68 69 70 71 73 74 76 78 80 82 84 86 88 89 91 92 92 91 90 88 87 87 86 86 85 85 83 82 81 80 80 82 84 84 84 84 83 83 83 83 83 83 84 85 87 87 88 88 89 90 90 91 91 91 91
Wind_Direction
209 209 209 207 205 206 206 207 208 208 212 216 217 216 215 215 216 219 221 221 221 222 224 227 232 237 241 243 244 247 248 247 247 248 250 251 252 252 251 252 253 253 252 252 253 253 254 255 257 260 262 263 263 263 262 262 261 261 262 264 265 266 267 268 268 270 272 275 277 277 277 277 277 277 276 276 276 277 278 279 280 281 281 282 282 282 283 283
210 210 210 210 208 208 209 208 209 211 212 214 217 219 221 221 220 222 225 228 230 231 231 231 231 232 237 240 242 245 248 248 248 249 250 250 251 252 253 254 255 255 254 253 254 255 256 257 259 261 262 262 262 262 264 265 265 265 265 265 265 266 267 269 271 272 274 275 276 277 277 277 277 277 277 278 279 279 280 282 282 281 282 283 282 282 283 283
214 213 212 213 212 211 211 211 210 212 214 215 217 218 222 225 226 228 230 233 236 238 238 237 236 234 235 239 242 246 248 249 250 250 250 250 250 251 251 253 254 254 254 254 254 255 257 258 260 261 262 262 262 264 266 267 268 267 266 265 266 267 269 271 273 274 275 276 277 277 277 278 278 279 279 280 280 280 281 282 282 282 282 283 282 283 283 283
219 217 215 215 215 214 214 214 213 214 215 217 218 219 221 224 226 229 232 235 238 240 240 240 240 239 238 238 241 245 246 247 248 250 251 251 252 252 252 252 253 255 256 257 257 257 258 260 261 261 262 262 263 264 265 266 267 267 267 267 268 269 271 273 274 275 276 277 277 278 279 279 280 280 280 279 279 279 280 281 281 282 282 282 283 283 283 283
227 222 219 217 218 218 217 217 217 217 217 218 220 222 224 225 226 227 228 231 235 238 240 239 239 241 241 239 238 240 242 243 244 246 247 248 250 251 252 253 253 256 257 259 258 258 258 258 258 259 260 262 263 264 265 266 267 267 268 269 271 272 273 274 275 276 277 277 278 278 279 279 280 280 280 279 279 280 281 281 281 282 282 282 283 283 284 284
234 229 225 221 221 221 221 221 220 220 220 220 221 223 226 228 229 228 229 230 231 233 236 237 237 238 241 241 240 239 240 241 241 242 242 243 245 246 248 249 250 252 253 254 254 253 254 254 256 258 260 262 263 265 267 269 269 270 271 271 272 273 274 275 275 276 277 277 278 278 279 280 280 281 280 280 280 281 281 281 282 282 282 283 283 284 285 285
240 237 232 228 225 224 224 224 224 224 223 223 223 225 227 230 231 231 231 232 232 233 233 234 235 236 238 240 240 240 240 241 241 242 242 242 243 244 245 246 247 248 249 251 251 252 253 254 257 260 263 265 266 268 269 270 271 272 273 274 274 274 274 275 275 276 276 277 278 279 279 280 281 281 281 280 281 282 282 282 282 283 283 284 284 285 285 286
245 242 239 235 232 229 228 228 228 228 228 227 226 227 229 231 233 234 233 234 234 235 235 236 236 236 237 238 240 240 241 241 243 244 244 244 244 244 245 246 248 249 251 252 254 255 256 257 259 261 264 266 268 269 270 271 272 272 273 274 274 274 275 275 275 276 277 277 278 279 279 280 280 281 281 281 281 282 282 282 282 283 284 284 284 285 285 286
249 246 243 240 238 235 233 232 232 232 233 232 231 231 231 233 234 236 236 236 237 237 238 238 238 238 238 239 240 242 243 243 244 245 246 247 247 247 248 249 251 252 253 254 256 257 259 261 262 264 265 267 268 269 270 271 272 272 273 274 274 275 275 276 276 277 277 278 279 279 280 280 281 281 281 281 282 282 282 282 283 283 284 284 285 285 286 286
252 251 248 245 242 240 238 236 236 236 236 236 236 236 236 236 237 238 239 240 240 241 241 242 242 242 241 241 241 243 244 245 246 247 248 249 250 251 251 252 254 255 256 256 257 259 261 263 265 266 267 269 269 270 271 271 272 273 273 274 275 275 276 276 277 277 278 278 279 279 280 281 281 281 281 281 282 282 282 283 284 284 285 285 286 286 286 287
256 255 253 249 245 242 241 240 239 239 239 240 240 241 241 241 241 241 242 242 243 243 244 244 245 245 245 245 245 245 245 246 248 249 250 251 251 252 253 255 257 258 259 259 260 261 263 265 266 267 268 269 270 271 271 272 273 273 274 275 275 276 276 277 277 278 278 279 279 279 280 281 281 281 281 282 282 282 283 284 285 285 286 286 286 287 287 287
258 256 254 252 250 247 246 245 245 244 244 244 244 244 245 245 245 245 245 245 246 246 246 246 247 247 248 249 249 249 248 249 250 251 252 253 253 254 255 257 258 260 261 262 263 264 265 267 268 268 269 270 271 271 272 273 273 274 275 275 276 276 277 277 277 278 278 279 279 279 281 282 282 281 281 282 282 283 284 285 285 286 286 286 286 287 287 287
258 257 256 255 254 254 253 252 251 249 249 249 248 248 248 249 249 249 249 249 249 249 248 248 248 249 249 250 251 252 252 252 252 253 254 255 256 256 257 258 260 261 262 264 265 266 267 268 269 270 270 271 271 272 272 273 274 274 275 275 276 277 277 278 278 279 279 279 280 280 281 282 282 282 283 283 284 285 285 286 287 287 286 286 286 286 286 286
258 257 257 257 258 258 258 257 255 254 253 253 253 253 252 253 253 253 253 252 252 252 251 251 250 251 251 252 252 253 254 255 255 256 256 257 257 258 259 260 261 262 263 264 265 266 267 268 269 270 270 271 271 272 273 274 274 275 275 276 277 277 278 279 280 280 280 280 281 281 282 282 283 283 283 284 286 286 287 287 287 286 286 286 286 286 286 285
257 257 258 258 258 259 259 259 259 259 259 258 258 257 257 257 257 257 257 256 256 255 255 254 254 253 253 254 254 254 255 256 257 258 258 259 259 260 261 262 263 263 264 265 266 267 268 268 269 270 271 271 272 272 273 274 275 276 276 277 278 278 279 280 280 280 281 281 282 283 284 284 284 284 285 286 287 288 288 287 287 286 287 287 287 286 286 286
260 261 260 260 259 259 260 261 262 263 263 263 263 262 262 261 261 261 260 260 260 260 259 259 258 257 257 256 256 256 257 257 258 259 260 260 261 261 262 263 264 264 265 266 267 267 268 269 269 270 271 271 272 273 274 275 276 276 277 278 278 279 279 280 280 280 281 282 283 284 285 285 285 285 286 287 288 288 287 287 287 287 287 287 287 287 287 286
264 262 261 262 263 266 268 268 269 269 269 268 268 267 265 265 265 264 264 264 263 263 263 262 262 261 260 260 259 259 259 259 259 259 260 261 261 262 263 264 264 265 266 266 267 268 268 269 270 271 271 272 273 274 275 275 276 277 278 278 279 279 280 280 281 281 282 283 284 285 285 285 285 286 287 287 287 287 287 287 287 287 287 287 287 286 286 285
260 259 264 272 277 280 281 280 279 277 275 273 272 271 269 268 268 268 267 266 266 265 265 265 265 264 263 262 261 260 260 259 259 259 260 261 261 262 263 264 265 265 266 267 268 268 269 270 271 272 272 273 274 275 275 276 276 277 278 279 280 280 281 281 281 282 283 284 284 285 285 285 285 286 287 287 287 287 287 287 287 287 286 286 286 285 285 284
257 267 281 291 293 293 291 289 286 284 282 279 278 276 275 273 271 271 271 270 270 269 268 267 267 267 266 264 263 261 260 260 259 259 260 260 261 262 263 264 264 265 266 267 268 268 269 270 271 272 273 274 274 275 276 276 277 277 278 279 280 280 281 282 282 282 283 284 284 284 284 284 285 286 286 287 286 286 286 286 286 286 286 286 286 285 285 285
272 294 301 300 299 298 298 297 295 294 292 290 289 288 287 285 282 281 279 278 277 276 274 272 270 269 269 268 266 264 262 261 260 260 260 260 261 261 262 263 264 265 266 267 268 269 269 270 271 272 273 273 274 275 275 276 277 278 278 279 279 280 280 281 282 282 283 283 283 283 283 283 284 285 286 286 286 286 286 286 286 286 286 287 287 287 287 286
304 306 304 303 303 303 305 306 306 305 303 301 300 299 298 297 295 293 292 289 288 286 285 282 278 275 273 272 270 268 267 264 263 262 261 261 261 262 262 263 264 265 266 267 267 268 269 270 271 272 272 273 274 275 276 277 278 278 279 279 280 280 280 281 282 282 282 283 283 283 283 284 284 285 286 286 287 287 287 287 287 287 288 288 288 288 287 287
314 310 307 304 305 307 310 312 312 312 309 308 305 303 303 302 301 300 299 297 296 294 293 291 289 285 281 278 275 273 271 269 268 266 265 264 263 263 264 264 265 266 267 267 268 269 270 270 271 272 273 274 275 276 277 278 278 279 279 280 280 280 281 281 282 282 282 283 283 284 284 285 285 286 286 286 287 287 287 288 288 288 288 288 288 288 287 287
312 309 305 305 308 309 311 312 312 310 309 308 308 309 309 308 307 306 304 302 300 297 296 294 292 290 288 285 281 278 276 274 272 271 269 268 267 267 266 267 267 268 268 269 269 270 271 271 272 273 274 275 276 276 277 278 279 279 279 280 280 281 281 281 282 283 283 284 284 284 285 286 286 286 287 287 287 287 287 287 287 287 287 287 287 287 287 287
306 305 305 308 310 309 308 308 309 310 311 313 314 315 315 313 311 308 305 303 300 298 295 293 291 290 288 287 285 283 281 279 277 275 274 273 272 271 271 270 270 270 270 270 271 271 271 272 273 274 274 275 276 277 278 278 279 280 280 281 281 282 282 283 283 284 284 285 285 286 286 286 286 287 287 287 287 287 287 287 287 287 287 287 287 287 287 287
300 303 306 310 311 312 313 313 314 316 318 320 320 319 317 315 311 308 305 301 298 296 293 291 290 289 287 286 284 283 282 281 280 278 277 276 275 274 274 273 273 273 273 272 273 273 273 273 274 274 275 276 277 278 278 279 280 281 282 282 283 283 284 284 284 285 285 286 286 286 286 286 286 287 287 287 287 287 287 287 287 287 287 287 287 288 287 287
300 305 310 314 319 321 322 322 323 324 324 323 322 320 318 315 311 308 305 302 299 295 292 291 290 288 286 285 283 282 281 280 279 279 278 277 276 275 275 275 275 275 275 275 275 275 275 276 276 276 277 278 278 279 280 281 281 282 283 283 284 284 285 285 285 286 286 286 287 287 286 286 287 287 288 288 288 288 288 287 287 287 287 288 287 287 287 287
312 316 321 325 328 328 328 329 329 328 326 325 322 320 318 315 312 309 306 304 300 296 294 292 290 288 286 284 283 281 280 279 279 278 277 277 276 276 276 276 276 276 277 277 277 277 278 278 278 279 279 280 280 281 281 282 282 283 283 284 284 285 285 285 286 286 286 287 287 287 287 288 289 289 289 289 289 288 288 288 287 287 287 287 287 286 286 286
326 330 332 333 333 333 333 332 331 328 326 324 322 320 317 315 313 311 309 306 303 299 297 294 291 288 286 284 282 281 280 279 279 278 278 277 278 278 278 277 277 277 278 278 278 279 279 279 280 280 280 280 281 281 282 282 283 283 284 284 285 285 285 286 286 287 287 288 289 288 288 290 291 291 290 290 289 288 288 287 287 287 286 286 286 286 286 286
337 338 337 337 337 337 335 333 331 328 326 323 321 320 318 316 315 312 310 308 305 303 301 298 295 292 288 286 284 281 280 279 278 278 278 278 278 278 278 278 279 279 279 279 279 279 280 280 280 280 281 281 281 282 283 283 284 284 284 285 286 286 287 287 288 289 289 290 290 289 289 290 291 291 290 289 289 288 288 288 287 287 287 287 287 287 287 287
341 339 338 338 338 337 335 333 330 327 325 323 321 320 318 317 316 314 312 311 309 308 306 304 301 298 295 292 289 286 283 281 279 279 279 279 279 279 279 279 279 279 279 279 279 279 280 280 280 281 281 282 283 283 284 285 286 286 287 287 288 289 289 289 290 290 290 291 290 290 290 290 291 291 291 290 290 290 289 289 288 288 288 288 288 288 287 287
340 338 337 338 337 336 334 331 328 326 324 323 322 320 319 318 317 316 316 316 315 314 313 312 310 307 304 300 296 293 290 288 285 283 282 281 281 281 281 281 281 281 281 281 281 281 281 281 282 283 284 285 286 287 288 288 289 289 290 289 289 289 290 290 290 290 291 291 291 291 291 292 292 293 292 291 291 290 290 289 289 289 289 288 288 288 287 287
337 336 337 337 336 334 332 329 327 326 325 323 321 320 319 320 319 319 319 320 320 319 318 317 315 313 310 307 303 300 298 296 294 291 290 289 288 287 287 287 287 286 287 287 288 288 287 287 286 287 288 289 289 290 291 292 292 292 292 292 291 291 291 292 292 292 293 294 294 294 294 294 294 294 292 292 291 290 290 289 289 289 288 288 287 287 287 286
335 335 336 335 334 332 330 328 327 326 324 322 321 321 321 321 321 321 322 324 324 324 323 320 318 315 313 311 309 306 304 302 300 299 298 297 295 294 293 293 293 292 292 293 293 295 295 294 294 294 294 295 295 295 295 296 296 296 296 296 296 295 295 295 296 295 296 296 296 296 295 295 295 294 293 292 291 290 289 289 289 288 287 287 286 286 286 286
334 335 334 334 333 331 329 328 326 324 323 323 322 322 323 323 323 324 326 328 328 327 327 325 323 321 318 316 313 311 308 306 304 303 301 300 299 298 298 297 297 297 297 296 296 297 296 296 296 298 298 299 299 300 300 300 300 300 300 300 300 299 299 299 298 297 296 296 296 296 295 295 294 293 292 291 290 290 289 289 289 288 288 287 287 287 286 286
334 334 334 333 331 329 328 327 325 324 323 324 324 325 326 326 327 329 329 330 330 329 328 327 326 324 321 320 317 315 313 311 309 307 305 304 303 302 302 301 301 300 300 300 300 301 300 299 300 301 302 303 304 304 304 304 303 303 302 301 301 301 301 301 300 299 297 296 296 295 294 294 294 293 293 292 292 291 291 290 290 289 289 289 288 288 288 287
334 334 333 331 330 328 327 325 324 324 325 326 327 329 329 329 330 330 330 330 329 327 326 325 324 322 320 318 316 315 313 312 311 309 308 308 307 307 307 306 306 306 306 307 307 308 309 307 306 307 308 308 308 308 307 306 305 304 303 302 303 302 302 302 301 301 299 298 298 297 296 296 295 294 294 293 293 292 292 292 291 291 290 290 289 289 289 288
334 333 331 329 328 327 325 324 325 326 326 327 329 330 331 331 330 330 329 329 327 326 325 324 322 321 320 318 316 315 315 314 314 314 314 314 314 314 314 314 315 315 315 315 315 315 315 313 311 311 311 310 311 310 309 308 308 306 305 305 305 304 304 303 303 302 301 300 300 299 298 297 296 295 294 293 293 293 292 292 292 291 291 290 290 289 289 289
333 331 330 328 327 326 325 326 326 327 328 329 330 330 331 331 331 331 330 329 328 327 326 325 325 324 324 323 323 322 322 322 322 322 322 322 322 322 322 322 322 321 319 318 317 316 316 315 314 313 313 313 313 313 312 310 309 308 307 307 306 306 305 304 304 303 301 300 299 298 298 297 296 295 294 293 293 292 292 291 291 290 290 290 289 289 288 288
331 330 329 328 327 326 326 327 327 328 328 329 329 329 330 331 331 331 330 330 329 329 329 329 329 329 329 330 330 330 330 330 330 330 329 328 327 326 325 323 322 320 319 318 318 318 317 318 317 315 315 315 315 314 312 311 310 309 308 307 307 306 305 304 303 302 301 300 299 298 297 296 296 295 294 293 293 292 291 291 290 290 289 289 289 288 288 287
330 329 329 328 327 327 327 327 328 329 329 329 330 331 332 333 332 332 332 332 332 332 333 333 333 333 334 334 334 335 335 333 332 331 330 327 326 325 324 325 324 324 323 323 322 321 320 320 319 316 315 315 314 313 311 310 309 308 307 306 306 305 304 304 303 302 301 301 300 299 298 297 295 294 293 293 292 292 291 290 290 290 289 289 288 288 288 287
329 329 329 328 328 328 328 329 329 330 330 331 332 333 334 334 334 334 334 335 335 336 336 336 337 337 337 337 336 335 334 332 330 329 328 328 328 328 329 329 329 327 326 324 323 321 320 319 318 315 314 314 313 312 310 310 308 307 306 306 305 304 304 303 303 302 301 301 300 299 298 298 296 294 294 293 292 292 291 291 290 290 290 289 289 289 288 288
329 329 329 329 328 328 329 330 331 331 332 333 334 335 335 335 336 336 337 337 337 338 339 340 341 340 339 337 335 334 333 333 333 333 334 334 333 332 331 330 328 326 324 322 321 320 319 318 317 315 314 314 313 312 311 310 309 309 308 307 307 306 305 304 303 302 301 300 299 299 299 298 297 296 295 294 294 293 293 292 292 291 291 290 290 290 289 289
330 329 329 329 329 330 331 332 332 333 334 335 335 336 336 337 338 338 339 339 340 342 343 343 341 338 337 335 336 336 337 337 337 337 337 336 333 332 330 328 326 324 323 321 320 319 319 318 317 316 315 315 314 313 313 312 311 310 309 308 307 306 305 304 303 302 302 301 300 299 299 299 298 297 296 295 295 294 294 293 293 293 292 292 291 291 290 290
330 329 329 330 331 332 333 332 333 334 335 336 337 338 339 340 340 340 341 343 344 343 341 338 335 334 334 336 338 340 340 339 338 337 335 333 331 329 328 326 325 324 323 322 321 320 320 319 317 316 316 315 314 313 312 311 309 308 307 307 306 305 304 304 303 303 302 302 301 300 299 299 298 298 297 296 296 295 295 295 294 294 293 293 292 292 292 292
329 329 330 331 332 332 332 332 334 335 337 338 339 341 341 340 341 344 345 345 342 339 336 336 336 338 340 341 341 341 340 338 336 334 332 330 329 328 327 326 326 325 324 323 323 322 321 321 319 318 318 317 315 313 311 310 309 308 307 307 306 306 305 305 304 303 303 303 302 301 300 300 300 299 298 297 297 297 296 296 295 295 294 293 293 293 293 293
330 331 332 332 332 332 332 333 336 337 339 341 342 342 341 342 345 346 344 342 339 338 339 341 344 345 345 344 342 340 338 335 333 331 330 329 329 328 327 327 326 326 325 325 324 324 323 322 321 319 319 318 316 315 314 313 311 310 309 309 308 307 306 306 305 304 304 303 302 301 301 300 300 300 299 299 299 298 298 297 296 296 295 295 295 294 294 293
331 332 332 331 331 331 333 336 339 341 342 342 342 342 343 345 346 343 339 337 338 342 344 346 347 346 344 341 339 336 334 332 331 330 330 330 329 329 329 328 328 327 327 326 325 325 324 322 321 319 318 318 317 315 314 314 313 312 311 310 310 309 308 307 306 305 305 303 303 302 301 301 301 301 300 300 300 299 298 298 297 296 296 295 295 294 294 293
332 331 330 330 331 333 336 339 341 343 343 342 342 344 346 344 341 336 335 338 342 345 346 346 345 343 340 337 335 333 332 332 331 331 331 331 330 330 330 329 329 328 327 326 325 324 323 321 320 319 317 317 316 315 315 314 314 314 313 312 311 310 309 308 306 306 305 304 304 303 303 302 302 301 301 300 300 299 298 298 297 297 296 296 295 295 294 294
330 330 330 331 333 336 339 341 343 343 342 342 345 345 343 338 336 336 339 343 345 346 345 344 342 339 336 333 332 331 332 332 332 332 332 331 331 331 330 330 329 328 327 326 325 323 322 321 320 319 317 317 316 316 315 315 315 314 313 313 312 311 310 308 307 307 306 305 305 305 305 304 304 303 303 302 302 301 300 300 299 298 298 297 297 296 296 295
329 330 331 333 336 339 341 343 343 343 343 345 344 341 336 335 337 342 345 347 346 344 343 340 337 335 332 332 332 332 333 333 333 332 332 332 331 331 330 329 328 328 327 325 324 323 322 321 320 319 318 318 317 317 316 315 315 314 314 313 312 312 311 310 308 307 306 306 306 306 306 305 305 305 304 303 303 302 301 301 300 300 299 299 298 297 297 296
329 331 333 335 338 341 342 343 343 343 344 343 339 336 335 338 343 346 347 346 344 342 339 336 334 332 332 333 334 335 335 335 334 333 333 332 332 331 330 329 328 327 326 325 324 323 322 321 321 320 319 319 318 317 316 316 315 314 314 313 313 312 311 309 308 307 306 306 306 306 305 305 304 304 304 303 303 302 302 302 301 301 300 300 299 299 298 297
330 332 334 337 340 342 343 342 343 343 341 338 335 337 340 344 347 346 345 343 341 338 335 333 333 333 334 336 336 336 336 335 334 334 333 333 332 331 330 329 328 327 326 325 324 323 323 322 321 320 320 319 318 317 317 316 315 315 314 313 312 311 310 310 309 308 308 308 308 307 306 306 305 305 304 304 304 304 304 303 303 302 301 301 301 300 299 299
Height
10706 10709 10711 10713 10716 10718 10720 10721 10723 10724 10725 10726 10728 10729 10730 10731 10732 10733 10733 10734 10735 10735 10735 10736 10737 10737 10737 10737 10737 10738 10738 10738 10739 10739 10739 10740 10740 10741 10741 10742 10742 10742 10743 10743 10743 10743 10744 10744 10743 10743 10743 10742 10742 10741 10741 10740 10739 10739 10738 10737 10736 10736 10735 10734 10734 10734 10733 10732 10731 10729 10727 10726 10726 10725 10722 10720 10719 10717 10714 10714 10714 10710 10707 10706 10704 10700 10698 10697
10704 10706 10708 10711 10713 10715 10717 10719 10721 10722 10723 10724 10725 10726 10727 10728 10729 10730 10730 10731 10732 10733 10733 10733 10734 10735 10735 10735 10735 10735 10735 10735 10736 10736 10737 10737 10737 10738 10738 10739 10739 10739 10739 10739 10739 10739 10740 10740 10739 10738 10738 10738 10737 10736 10736 10735 10735 10735 10734 10733 10732 10732 10730 10729 10729 10728 10728 10726 10725 10724 10722 10721 10720 10719 10716 10714 10712 10709 10708 10708 10707 10701 10699 10699 10695 10692 10691 10689
10703 10705 10706 10708 10710 10712 10715 10716 10718 10719 10721 10722 10723 10724 10724 10725 10726 10726 10727 10727 10728 10729 10730 10730 10731 10732 10732 10732 10732 10732 10732 10732 10733 10733 10733 10734 10734 10735 10735 10735 10735 10735 10735 10735 10735 10735 10735 10735 10734 10734 10733 10733 10732 10732 10731 10731 10731 10730 10729 10728 10727 10727 10725 10724 10723 10721 10721 10720 10720 10718 10716 10715 10714 10713 10709 10707 10705 10701 10702 10702 10698 10693 10692 10691 10687 10684 10683 10681
10702 10703 10705 10707 10708 10709 10711 10713 10715 10716 10717 10718 10719 10720 10721 10722 10722 10723 10723 10724 10724 10725 10726 10727 10728 10728 10729 10729 10730 10729 10729 10729 10730 10730 10730 10730 10731 10731 10731 10732 10732 10732 10731 10731 10731 10731 10731 10730 10730 10730 10729 10729 10728 10727 10727 10727 10726 10725 10724 10723 10722 10722 10720 10719 10718 10716 10715 10714 10713 10712 10710 10708 10708 10706 10702 10701 10697 10694 10697 10695 10690 10687 10685 10682 10679 10675 10674 10672
10700 10702 10703 10704 10705 10707 10708 10710 10711 10713 10714 10715 10716 10717 10717 10718 10719 10719 10720 10721 10721 10722 10723 10723 10724 10724 10725 10725 10726 10727 10727 10727 10727 10727 10727 10727 10727 10727 10728 10728 10728 10728 10727 10727 10727 10727 10727 10726 10726 10726 10725 10725 10724 10723 10723 10723 10722 10720 10719 10719 10717 10716 10715 10714 10712 10710 10709 10708 10706 10705 10703 10702 10701 10699 10695 10692 10689 10687 10689 10686 10681 10679 10676 10674 10670 10666 10664 10662
10699 10700 10701 10703 10704 10705 10705 10707 10708 10709 10711 10711 10712 10713 10714 10714 10715 10715 10716 10717 10718 10718 10719 10720 10721 10721 10721 10721 10722 10723 10723 10724 10723 10723 10723 10723 10723 10724 10724 10724 10724 10723 10723 10723 10723 10723 10722 10722 10722 10722 10721 10720 10720 10718 10718 10718 10717 10715 10713 10713 10712 10710 10709 10707 10706 10704 10702 10701 10699 10698 10696 10694 10693 10690 10686 10682 10680 10681 10679 10676 10672 10670 10667 10665 10662 10658 10655 10652
10697 10698 10699 10701 10702 10703 10703 10704 10705 10706 10707 10708 10708 10709 10710 10710 10711 10712 10712 10713 10713 10714 10715 10716 10717 10717 10718 10718 10718 10719 10720 10720 10720 10719 10720 10720 10720 10720 10720 10720 10720 10719 10719 10718 10718 10718 10718 10717 10717 10716 10716 10715 10714 10713 10712 10712 10711 10710 10707 10707 10705 10704 10703 10701 10700 10697 10696 10694 10692 10691 10688 10687 10685 10681 10677 10671 10671 10674 10670 10666 10663 10660 10658 10656 10653 10649 10646 10643
10696 10697 10697 10698 10700 10701 10702 10702 10703 10704 10704 10704 10705 10705 10706 10706 10707 10708 10708 10709 10709 10710 10711 10712 10713 10713 10714 10714 10714 10715 10715 10716 10716 10716 10716 10716 10716 10716 10716 10715 10715 10715 10714 10714 10713 10713 10712 10712 10712 10711 10710 10710 10709 10707 10707 10706 10705 10704 10702 10700 10699 10697 10695 10694 10692 10690 10688 10686 10684 10683 10680 10680 10678 10674 10668 10660 10663 10665 10660 10657 10655 10652 10650 10647 10644 10641 10637 10634
10694 10695 10696 10697 10698 10699 10700 10700 10701 10701 10701 10701 10702 10702 10703 10703 10704 10705 10705 10706 10706 10707 10707 10708 10709 10709 10710 10710 10710 10711 10711 10711 10711 10712 10711 10712 10711 10711 10711 10711 10711 10710 10710 10709 10708 10708 10707 10707 10706 10705 10704 10704 10703 10702 10701 10700 10698 10697 10695 10693 10691 10689 10688 10686 10684 10682 10681 10678 10676 10674 10672 10672 10670 10666 10658 10651 10656 10656 10649 10649 10647 10644 10641 10638 10635 10632 10628 10625
10693 10693 10694 10695 10695 10696 10696 10697 10697 10697 10698 10698 10699 10700 10700 10700 10701 10701 10702 10703 10703 10703 10704 10705 10705 10706 10706 10706 10707 10706 10706 10707 10706 10706 10707 10707 10707 10707 10706 10706 10706 10705 10705 10704 10703 10703 10702 10701 10700 10699 10698 10697 10696 10695 10694 10693 10691 10690 10688 10687 10684 10682 10680 10677 10675 10673 10672 10670 10668 10666 10664 10664 10661 10657 10648 10644 10648 10644 10640 10640 10638 10635 10631 10628 10625 10621 10617 10614
10691 10692 10692 10692 10692 10693 10693 10693 10694 10694 10695 10696 10697 10697 10697 10697 10698 10698 10698 10699 10699 10700 10700 10701 10702 10702 10702 10703 10703 10702 10703 10703 10702 10702 10702 10702 10702 10702 10701 10701 10700 10700 10699 10698 10698 10697 10696 10695 10694 10693 10692 10690 10689 10688 10687 10685 10684 10682 10681 10679 10676 10674 10672 10669 10667 10665 10664 10661 10659 10658 10657 10656 10651 10645 10639 10638 10638 10632 10631 10631 10627 10625 10621 10618 10615 10610 10607 10604
10690 10690 10690 10690 10690 10690 10691 10692 10692 10693 10693 10694 10694 10695 10695 10694 10694 10694 10695 10695 10695 10695 10696 10697 10697 10698 10698 10698 10698 10698 10699 10699 10698 10698 10697 10697 10697 10696 10696 10695 10694 10694 10693 10692 10692 10691 10690 10689 10687 10686 10685 10683 10682 10680 10679 10677 10676 10674 10673 10671 10668 10666 10665 10661 10658 10657 10655 10652 10649 10649 10651 10648 10638 10633 10631 10630 10627 10623 10623 10621 10617 10615 10611 10607 10604 10601 10598 10594
10688 10688 10688 10688 10688 10689 10690 10690 10690 10690 10691 10691 10692 10692 10692 10691 10691 10691 10690 10691 10691 10691 10691 10692 10692 10692 10693 10693 10692 10693 10693 10693 10693 10693 10692 10692 10691 10691 10690 10689 10689 10688 10687 10686 10685 10684 10683 10682 10680 10679 10677 10676 10674 10673 10672 10670 10668 10666 10664 10663 10661 10658 10656 10652 10649 10648 10645 10643 10640 10639 10644 10641 10627 10621 10621 10619 10617 10615 10613 10611 10607 10603 10598 10596 10594 10592 10588 10584
10686 10686 10686 10687 10687 10687 10687 10687 10687 10688 10688 10689 10688 10688 10688 10688 10687 10687 10686 10686 10686 10686 10685 10686 10687 10687 10687 10687 10687 10687 10687 10687 10688 10687 10687 10686 10685 10685 10684 10683 10683 10682 10681 10680 10679 10678 10676 10675 10673 10672 10669 10668 10666 10665 10664 10662 10660 10657 10655 10655 10653 10650 10648 10643 10640 10638 10634 10632 10631 10629 10634 10632 10618 10610 10609 10608 10608 10605 10602 10600 10596 10590 10586 10585 10584 10582 10578 10574
10684 10685 10685 10685 10685 10685 10685 10685 10685 10685 10686 10686 10685 10685 10685 10684 10684 10683 10682 10681 10680 10680 10680 10680 10680 10681 10681 10680 10680 10681 10681 10681 10681 10680 10680 10680 10679 10678 10677 10677 10676 10675 10674 10672 10672 10670 10669 10667 10666 10663 10661 10659 10658 10658 10657 10655 10652 10648 10647 10648 10644 10642 10640 10635 10631 10628 10623 10622 10622 10619 10621 10621 10609 10600 10599 10599 10599 10595 10590 10586 10582 10579 10576 10574 10573 10571 10568 10564
10683 10684 10683 10683 10683 10683 10683 10683 10683 10683 10683 10683 10682 10682 10681 10680 10679 10678 10677 10676 10675 10675 10674 10673 10673 10673 10674 10673 10673 10674 10674 10674 10673 10673 10673 10672 10671 10670 10670 10670 10669 10668 10667 10665 10664 10662 10661 10659 10657 10655 10653 10650 10650 10650 10649 10648 10644 10639 10639 10639 10636 10634 10632 10628 10622 10618 10615 10614 10613 10609 10609 10608 10598 10590 10591 10591 10589 10584 10579 10573 10570 10568 10565 10563 10562 10560 10557 10553
10682 10682 10681 10682 10682 10682 10682 10681 10681 10681 10681 10680 10679 10679 10678 10677 10675 10674 10672 10671 10670 10669 10668 10667 10665 10665 10666 10665 10665 10665 10666 10666 10665 10665 10665 10664 10663 10663 10662 10662 10661 10659 10659 10657 10655 10653 10652 10651 10649 10647 10644 10642 10642 10641 10641 10640 10636 10632 10631 10630 10628 10625 10623 10619 10613 10609 10607 10606 10604 10600 10599 10596 10587 10581 10583 10582 10578 10573 10567 10562 10559 10556 10554 10552 10551 10549 10546 10542
10680 10680 10680 10680 10680 10680 10680 10680 10680 10679 10679 10678 10677 10676 10675 10673 10672 10670 10668 10666 10665 10663 10662 10661 10659 10658 10657 10656 10656 10656 10656 10657 10656 10656 10656 10655 10655 10654 10654 10653 10652 10651 10650 10649 10647 10645 10643 10643 10641 10638 10636 10635 10634 10632 10632 10631 10627 10625 10622 10620 10619 10616 10613 10609 10603 10601 10599 10597 10593 10589 10588 10585 10578 10574 10572 10570 10567 10562 10558 10553 10548 10544 10542 10542 10541 10538 10534 10530
10679 10679 10679 10679 10679 10679 10679 10678 10678 10677 10676 10675 10674 10673 10671 10670 10668 10667 10665 10663 10661 10659 10657 10656 10654 10652 10650 10649 10648 10648 10648 10648 10647 10647 10647 10647 10647 10646 10645 10644 10644 10643 10642 10640 10639 10637 10636 10635 10633 10630 10629 10627 10626 10624 10622 10621 10619 10617 10614 10612 10609 10607 10604 10597 10592 10592 10589 10586 10584 10578 10575 10574 10571 10568 10564 10558 10555 10552 10549 10545 10538 10533 10530 10529 10529 10526 10522 10518
10678 10678 10678 10678 10678 10678 10677 10677 10676 10675 10674 10673 10671 10670 10668 10666 10665 10663 10661 10659 10657 10655 10653 10651 10649 10647 10645 10643 10642 10641 10641 10640 10639 10639 10639 10639 10639 10638 10637 10636 10636 10635 10634 10632 10631 10630 10629 10628 10624 10622 10621 10618 10616 10615 10613 10611 10610 10608 10605 10603 10600 10597 10595 10588 10584 10583 10578 10576 10574 10568 10564 10564 10563 10561 10556 10549 10544 10541 10539 10535 10529 10523 10518 10516 10515 10512 10509 10505
10677 10678 10678 10677 10677 10677 10676 10675 10674 10673 10671 10670 10668 10667 10665 10663 10662 10660 10657 10655 10653 10651 10648 10646 10645 10642 10641 10639 10637 10636 10635 10634 10633 10632 10632 10632 10632 10631 10630 10629 10629 10627 10627 10625 10625 10623 10621 10619 10616 10615 10613 10610 10608 10606 10604 10602 10600 10598 10595 10593 10590 10587 10585 10581 10576 10573 10569 10566 10564 10558 10554 10554 10554 10552 10547 10542 10536 10531 10528 10523 10519 10513 10507 10503 10501 10498 10495 10491
10677 10677 10677 10677 10676 10675 10675 10673 10672 10671 10669 10668 10666 10664 10663 10661 10659 10656 10654 10652 10649 10647 10644 10642 10640 10638 10636 10634 10633 10632 10630 10629 10628 10627 10626 10626 10625 10624 10624 10623 10622 10621 10620 10619 10618 10616 10614 10612 10609 10608 10605 10603 10601 10597 10595 10594 10591 10589 10585 10583 10581 10577 10574 10572 10567 10563 10560 10556 10553 10548 10544 10543 10544 10541 10537 10533 10528 10523 10518 10513 10507 10502 10496 10491 10488 10485 10481 10477
10677 10677 10676 10676 10675 10674 10673 10672 10671 10669 10667 10666 10664 10661 10659 10657 10655 10653 10650 10647 10645 10642 10640 10638 10635 10633 10631 10630 10628 10627 10626 10625 10624 10622 10621 10620 10619 10619 10618 10617 10616 10615 10613 10612 10610 10609 10607 10605 10602 10600 10598 10595 10592 10589 10587 10585 10582 10579 10575 10573 10571 10567 10564 10563 10559 10554 10550 10547 10543 10538 10534 10533 10532 10529 10526 10522 10517 10513 10507 10502 10496 10490 10485 10480 10476 10472 10468 10464
10677 10676 10676 10675 10674 10673 10672 10671 10669 10667 10665 10663 10660 10658 10656 10653 10651 10649 10646 10643 10640 10638 10636 10633 10631 10629 10627 10625 10624 10623 10621 10620 10619 10617 10616 10616 10614 10613 10612 10611 10609 10608 10606 10604 10603 10601 10599 10597 10595 10592 10590 10587 10584 10582 10579 10577 10574 10569 10565 10564 10561 10557 10553 10552 10549 10545 10542 10537 10532 10527 10524 10523 10521 10517 10515 10511 10506 10502 10497 10491 10484 10478 10473 10467 10463 10459 10454 10450
10676 10676 10675 10674 10673 10672 10670 10668 10667 10665 10662 10660 10657 10655 10652 10649 10647 10644 10641 10638 10636 10633 10631 10628 10626 10624 10623 10621 10619 10618 10617 10615 10613 10612 10611 10610 10609 10607 10606 10604 10603 10601 10599 10597 10596 10594 10592 10589 10587 10585 10582 10579 10577 10574 10571 10569 10566 10561 10557 10554 10552 10548 10544 10541 10538 10534 10533 10528 10523 10516 10510 10511 10512 10507 10503 10499 10494 10490 10485 10479 10472 10466 10460 10455 10450 10446 10441 10437
10676 10675 10674 10673 10671 10670 10668 10666 10664 10662 10659 10656 10654 10651 10648 10645 10642 10639 10636 10633 10630 10628 10625 10623 10622 10619 10617 10616 10614 10613 10612 10610 10609 10607 10606 10604 10602 10601 10600 10598 10596 10595 10593 10591 10589 10587 10584 10582 10580 10578 10575 10572 10569 10566 10563 10560 10558 10554 10549 10545 10542 10539 10535 10531 10526 10523 10522 10518 10514 10506 10495 10496 10502 10498 10492 10487 10483 10479 10473 10467 10461 10454 10449 10444 10439 10434 10429 10424
10675 10674 10673 10671 10670 10668 10666 10664 10661 10659 10656 10653 10650 10647 10644 10641 10637 10634 10631 10628 10625 10622 10620 10618 10617 10614 10612 10610 10609 10608 10606 10605 10604 10602 10600 10598 10597 10595 10595 10593 10591 10589 10587 10585 10583 10580 10578 10575 10573 10570 10567 10565 10561 10558 10555 10552 10550 10546 10541 10537 10533 10529 10525 10521 10517 10513 10509 10507 10505 10495 10482 10483 10489 10488 10481 10476 10471 10466 10461 10454 10449 10444 10438 10433 10427 10422 10417 10412
10674 10673 10671 10670 10668 10666 10663 10661 10659 10656 10653 10650 10647 10643 10640 10636 10633 10629 10626 10623 10619 10617 10615 10613 10611 10609 10606 10605 10604 10603 10601 10600 10599 10596 10595 10593 10592 10591 10590 10588 10586 10584 10582 10580 10577 10574 10571 10569 10566 10563 10560 10557 10554 10550 10547 10544 10541 10537 10533 10528 10524 10520 10516 10512 10508 10503 10498 10497 10496 10485 10473 10472 10475 10475 10469 10463 10459 10454 10448 10442 10437 10432 10427 10421 10416 10410 10406 10401
10673 10671 10669 10668 10666 10663 10661 10659 10656 10653 10650 10646 10643 10639 10635 10631 10628 10624 10621 10618 10614 10611 10609 10607 10605 10603 10601 10600 10599 10597 10596 10595 10594 10592 10590 10589 10587 10586 10584 10582 10581 10579 10576 10574 10571 10568 10565 10561 10558 10555 10552 10549 10546 10542 10539 10536 10532 10528 10524 10520 10515 10511 10508 10503 10499 10495 10489 10487 10486 10476 10467 10462 10463 10464 10457 10450 10447 10441 10436 10430 10424 10419 10414 10409 10404 10399 10394 10389
10671 10670 10668 10666 10664 10661 10659 10656 10653 10650 10646 10642 10638 10634 10630 10626 10623 10619 10616 10613 10610 10607 10604 10602 10601 10599 10597 10595 10594 10592 10591 10590 10589 10587 10585 10584 10582 10581 10579 10577 10575 10573 10571 10568 10565 10562 10558 10554 10551 10548 10545 10541 10538 10535 10531 10528 10524 10520 10516 10511 10507 10502 10498 10495 10491 10486 10480 10478 10474 10467 10460 10454 10452 10453 10446 10438 10434 10429 10424 10418 10412 10407 10402 10397 10393 10387 10382 10377
10670 10668 10666 10664 10662 10659 10656 10653 10650 10646 10642 10638 10634 10629 10626 10622 10618 10615 10612 10609 10607 10604 10601 10599 10597 10595 10594 10592 10590 10588 10587 10585 10584 10583 10581 10580 10577 10575 10573 10571 10569 10567 10565 10561 10558 10555 10551 10547 10544 10541 10538 10535 10532 10528 10524 10521 10516 10511 10507 10502 10499 10495 10490 10488 10484 10477 10472 10469 10464 10458 10451 10445 10443 10441 10435 10428 10423 10417 10411 10406 10401 10396 10390 10385 10380 10375 10370 10365
10668 10666 10664 10662 10659 10656 10653 10650 10646 10642 10638 10634 10630 10625 10621 10618 10614 10611 10609 10606 10604 10601 10599 10597 10594 10592 10591 10589 10588 10586 10584 10582 10580 10579 10577 10575 10573 10571 10569 10567 10565 10562 10560 10556 10552 10548 10543 10540 10538 10535 10532 10529 10526 10522 10516 10512 10508 10503 10498 10491 10489 10486 10482 10481 10476 10470 10466 10459 10454 10449 10442 10437 10434 10428 10422 10417 10412 10405 10399 10394 10390 10384 10379 10373 10368 10363 10358 10353
10666 10664 10662 10659 10657 10653 10650 10647 10642 10638 10634 10630 10626 10621 10618 10614 10611 10609 10606 10604 10601 10599 10597 10595 10592 10590 10588 10587 10585 10583 10582 10579 10577 10575 10573 10571 10569 10567 10565 10562 10560 10557 10555 10552 10548 10543 10535 10531 10528 10526 10524 10520 10517 10514 10509 10504 10499 10494 10488 10482 10477 10472 10471 10473 10469 10462 10459 10452 10446 10439 10432 10428 10425 10417 10410 10404 10399 10393 10387 10383 10378 10373 10367 10361 10356 10350 10345 10340
10664 10662 10659 10656 10654 10650 10647 10643 10639 10635 10631 10627 10622 10618 10614 10611 10609 10606 10603 10601 10599 10597 10595 10592 10590 10588 10586 10584 10582 10580 10578 10576 10574 10572 10570 10567 10565 10563 10560 10558 10555 10553 10550 10547 10545 10541 10532 10525 10522 10519 10516 10513 10509 10506 10502 10497 10492 10486 10480 10474 10469 10462 10458 10460 10459 10454 10450 10447 10441 10432 10422 10418 10414 10407 10400 10392 10386 10381 10375 10370 10365 10359 10354 10347 10342 10337 10331 10326
10662 10659 10657 10654 10651 10647 10643 10640 10636 10632 10627 10623 10619 10615 10612 10609 10606 10604 10601 10599 10596 10594 10592 10590 10588 10586 10583 10581 10578 10576 10574 10572 10570 10568 10566 10563 10561 10559 10556 10554 10551 10548 10546 10543 10540 10538 10529 10521 10518 10515 10511 10508 10504 10499 10494 10490 10485 10480 10473 10466 10462 10456 10449 10447 10445 10441 10436 10436 10435 10425 10415 10408 10402 10396 10389 10379 10373 10367 10361 10357 10352 10345 10340 10334 10328 10322 10316 10311
10660 10657 10654 10651 10648 10644 10640 10637 10632 10628 10623 10619 10616 10613 10610 10607 10604 10602 10599 10597 10595 10592 10590 10588 10586 10584 10581 10579 10576 10573 10571 10569 10567 10564 10562 10560 10557 10555 10552 10550 10547 10544 10541 10538 10535 10534 10527 10516 10511 10510 10505 10501 10498 10493 10487 10483 10477 10472 10466 10459 10454 10448 10441 10436 10434 10429 10421 10420 10422 10415 10405 10398 10389 10383 10378 10368 10360 10354 10347 10342 10337 10330 10324 10319 10313 10307 10301 10296
10658 10655 10652 10648 10645 10641 10637 10633 10628 10624 10620 10616 10613 10611 10608 10605 10603 10600 10598 10595 10593 10590 10588 10585 10583 10581 10579 10577 10574 10571 10569 10566 10564 10561 10558 10556 10553 10551 10548 10545 10543 10539 10536 10533 10530 10528 10526 10516 10506 10502 10500 10495 10492 10486 10479 10473 10468 10462 10457 10451 10445 10439 10432 10425 10421 10417 10410 10406 10406 10402 10393 10386 10378 10370 10365 10357 10348 10341 10335 10329 10322 10315 10309 10303 10297 10292 10286 10281
10655 10652 10649 10645 10642 10638 10634 10629 10625 10621 10617 10614 10611 10609 10606 10603 10601 10598 10595 10593 10590 10588 10585 10583 10580 10578 10575 10573 10571 10568 10565 10563 10561 10558 10555 10553 10550 10547 10545 10542 10539 10536 10532 10529 10526 10523 10521 10516 10504 10496 10493 10489 10485 10480 10472 10464 10458 10452 10446 10441 10435 10429 10423 10416 10408 10402 10396 10393 10392 10391 10384 10375 10365 10357 10350 10343 10336 10328 10322 10315 10308 10301 10295 10288 10282 10276 10270 10264
10653 10650 10646 10642 10638 10634 10630 10626 10621 10618 10615 10612 10610 10607 10604 10601 10598 10596 10593 10590 10588 10585 10583 10580 10578 10575 10572 10570 10568 10565 10562 10560 10557 10555 10552 10550 10547 10544 10542 10539 10536 10533 10529 10525 10521 10517 10514 10511 10502 10492 10486 10483 10478 10473 10465 10457 10450 10442 10436 10430 10424 10417 10412 10407 10399 10388 10380 10376 10374 10373 10373 10367 10354 10343 10335 10328 10322 10315 10307 10301 10293 10287 10280 10273 10267 10260 10254 10248
10650 10647 10643 10639 10635 10630 10626 10622 10619 10616 10613 10610 10607 10604 10602 10599 10596 10593 10591 10588 10585 10583 10580 10578 10575 10573 10570 10568 10566 10563 10561 10558 10556 10553 10551 10548 10545 10542 10539 10535 10531 10527 10523 10519 10515 10511 10506 10503 10497 10487 10479 10474 10470 10464 10457 10450 10443 10435 10429 10422 10415 10407 10400 10396 10390 10378 10365 10360 10353 10348 10353 10355 10343 10329 10321 10315 10307 10300 10292 10285 10279 10272 10265 10258 10251 10244 10237 10230
10647 10644 10640 10636 10631 10627 10623 10619 10616 10613 10611 10608 10605 10602 10599 10596 10594 10591 10588 10586 10583 10581 10578 10576 10573 10571 10569 10566 10564 10562 10560 10558 10555 10552 10549 10545 10542 10539 10535 10531 10526 10522 10517 10512 10508 10504 10500 10495 10490 10483 10475 10469 10462 10455 10448 10441 10434 10426 10420 10413 10406 10398 10390 10384 10380 10371 10358 10349 10338 10327 10328 10335 10328 10315 10307 10300 10291 10284 10276 10268 10262 10255 10248 10241 10234 10227 10219 10213
10644 10640 10636 10632 10628 10624 10620 10617 10614 10611 10608 10605 10602 10599 10597 10594 10592 10589 10587 10584 10582 10579 10577 10574 10572 10569 10567 10565 10562 10559 10557 10555 10552 10549 10546 10542 10538 10534 10530 10526 10522 10517 10512 10507 10501 10497 10493 10488 10482 10475 10468 10463 10455 10447 10440 10432 10423 10415 10407 10400 10393 10385 10376 10369 10363 10358 10351 10341 10328 10314 10308 10310 10306 10297 10290 10282 10273 10266 10258 10251 10244 10237 10230 10223 10216 10208 10201 10194
10642 10637 10633 10629 10625 10622 10618 10615 10612 10609 10606 10603 10600 10597 10595 10593 10590 10588 10586 10583 10581 10578 10576 10574 10571 10569 10567 10564 10561 10558 10554 10551 10548 10545 10542 10538 10533 10529 10525 10521 10516 10511 10506 10500 10494 10488 10484 10479 10475 10469 10461 10455 10446 10436 10429 10420 10411 10403 10396 10388 10380 10372 10363 10355 10345 10338 10335 10329 10316 10303 10295 10291 10286 10279 10271 10263 10255 10248 10241 10234 10227 10219 10212 10205 10197 10189 10182 10176
10639 10635 10630 10626 10622 10619 10616 10613 10610 10607 10604 10601 10598 10596 10593 10591 10589 10586 10584 10582 10579 10577 10575 10573 10571 10569 10566 10563 10560 10557 10553 10548 10545 10541 10538 10534 10529 10525 10520 10516 10510 10505 10499 10493 10487 10480 10474 10468 10463 10459 10456 10451 10442 10432 10426 10417 10405 10395 10387 10379 10371 10361 10351 10343 10333 10323 10316 10312 10301 10287 10280 10275 10269 10261 10254 10246 10238 10231 10224 10217 10210 10202 10195 10188 10179 10171 10163 10157
10636 10632 10627 10623 10620 10617 10614 10611 10608 10605 10602 10600 10597 10594 10592 10590 10587 10585 10583 10581 10579 10577 10575 10572 10569 10566 10563 10560 10557 10554 10550 10546 10542 10537 10534 10530 10525 10520 10515 10510 10504 10498 10492 10486 10480 10472 10465 10457 10448 10442 10440 10437 10431 10422 10417 10412 10403 10391 10381 10370 10361 10350 10339 10328 10319 10309 10300 10295 10286 10271 10262 10257 10250 10243 10236 10228 10221 10214 10207 10200 10192 10184 10177 10170 10162 10155 10148 10142
10633 10629 10625 10621 10618 10615 10612 10609 10606 10603 10601 10598 10595 10593 10591 10589 10586 10584 10582 10580 10578 10575 10573 10570 10567 10563 10560 10556 10553 10549 10545 10542 10538 10533 10528 10524 10520 10515 10509 10503 10498 10492 10485 10478 10472 10464 10456 10448 10437 10427 10422 10419 10412 10402 10395 10390 10385 10378 10368 10358 10348 10337 10327 10316 10305 10295 10285 10278 10272 10260 10247 10240 10234 10226 10218 10211 10204 10197 10190 10183 10176 10167 10159 10152 10145 10139 10133 10127
10630 10626 10622 10619 10616 10613 10610 10607 10604 10601 10599 10596 10594 10592 10590 10588 10586 10584 10582 10580 10577 10574 10571 10568 10564 10561 10558 10554 10549 10545 10541 10537 10533 10528 10523 10518 10513 10508 10502 10496 10490 10483 10477 10470 10463 10457 10449 10441 10431 10418 10409 10404 10397 10387 10379 10372 10365 10359 10351 10342 10333 10323 10313 10303 10291 10282 10272 10261 10254 10247 10236 10227 10220 10211 10202 10195 10188 10181 10173 10166 10159 10152 10145 10137 10130 10123 10117 10111
10627 10624 10621 10618 10615 10611 10608 10605 10602 10600 10597 10595 10593 10591 10589 10587 10585 10584 10581 10578 10576 10573 10569 10566 10563 10560 10557 10553 10549 10544 10538 10533 10527 10522 10517 10511 10505 10499 10494 10488 10482 10475 10469 10462 10455 10450 10442 10434 10426 10414 10401 10393 10385 10375 10366 10358 10349 10342 10334 10326 10318 10309 10300 10290 10279 10269 10259 10247 10237 10231 10223 10215 10207 10198 10189 10181 10173 10166 10159 10151 10144 10136 10130 10122 10115 10108 10102 10095
10625 10622 10619 10616 10612 10609 10606 10604 10601 10599 10597 10594 10592 10590 10589 10587 10585 10582 10580 10576 10573 10570 10568 10565 10561 10558 10555 10551 10547 10543 10538 10532 10525 10518 10512 10506 10500 10493 10487 10481 10475 10469 10462 10456 10448 10441 10435 10426 10419 10409 10396 10385 10375 10364 10354 10346 10337 10329 10320 10312 10304 10296 10286 10276 10265 10255 10245 10234 10223 10214 10207 10199 10191 10182 10173 10165 10157 10149 10142 10135 10127 10119 10113 10106 10099 10092 10086 10079
10622 10619 10616 10613 10610 10607 10605 10602 10600 10598 10596 10594 10592 10590 10588 10586 10583 10580 10577 10574 10571 10568 10565 10562 10558 10555 10551 10547 10543 10538 10533 10528 10523 10516 10509 10502 10495 10489 10482 10475 10468 10461 10454 10448 10440 10432 10425 10417 10409 10401 10389 10377 10367 10355 10343 10335 10326 10317 10309 10300 10292 10283 10273 10262 10251 10242 10234 10225 10215 10205 10195 10186 10178 10168 10160 10151 10142 10135 10127 10120 10112 10104 10096 10090 10083 10076 10070 10063
10621 10618 10615 10611 10608 10606 10603 10601 10599 10597 10595 10593 10592 10590 10587 10585 10582 10578 10575 10572 10569 10566 10562 10559 10555 10551 10546 10542 10537 10532 10526 10520 10515 10509 10503 10496 10490 10483 10477 10469 10462 10455 10446 10439 10431 10423 10414 10406 10398 10390 10380 10369 10358 10348 10337 10328 10319 10310 10301 10293 10283 10274 10265 10254 10241 10231 10223 10217 10210 10201 10190 10180 10171 10162 10153 10141 10130 10122 10115 10107 10100 10091 10082 10074 10069 10062 10055 10048
10619 10616 10613 10610 10607 10604 10602 10600 10598 10596 10595 10593 10591 10589 10586 10583 10580 10577 10573 10570 10567 10564 10560 10556 10552 10547 10541 10535 10530 10525 10519 10513 10507 10501 10495 10489 10483 10476 10469 10462 10454 10447 10439 10430 10421 10412 10403 10395 10387 10379 10371 10361 10350 10339 10329 10320 10311 10302 10293 10285 10278 10269 10259 10248 10235 10223 10214 10206 10198 10191 10181 10171 10162 10154 10145 10135 10123 10113 10104 10097 10089 10080 10071 10062 10055 10049 10042 10035